SQ8AQL-16 Weather Reports


time (UTC)temp
C
wind
direction
speed
KPH
gust
KPH
rain 1hr
cm
rain 24hr
cm
rain mn
cm
humidity
%
barometer
mb
20260508033950 12 42 0.0 0.0 0.00 0.00 0.00 92 1017.1
20260508032449 12 66 0.0 0.0 0.00 0.00 0.00 91 1016.9
20260508030948 12 114 0.0 0.0 0.00 0.00 0.00 91 1017.0
20260508025447 12 114 0.0 0.0 0.00 0.00 0.00 91 1016.7
20260508023946 12 106 0.0 0.0 0.00 0.00 0.00 91 1016.7
20260508022444 12 96 0.0 0.0 0.00 0.00 0.00 91 1016.6
20260508020943 12 96 0.0 0.0 0.00 0.00 0.00 91 1016.7
20260508015442 12 52 0.0 0.0 0.00 0.00 0.00 92 1016.6
20260508013941 12 126 0.0 0.0 0.00 0.00 0.00 91 1016.5
20260508012440 12 130 0.0 0.0 0.00 0.00 0.00 92 1016.7
20260508010940 12 114 0.0 0.0 0.00 0.00 0.00 90 1016.5
20260508005439 12 114 0.0 0.0 0.00 0.00 0.00 90 1016.2
20260508003938 12 132 0.0 0.0 0.00 0.00 0.00 90 1015.9
20260508002437 12 126 0.0 0.0 0.00 0.00 0.00 90 1016.2
20260508000935 12 102 0.0 0.0 0.00 0.00 0.00 90 1016.4
20260507235435 12 126 0.0 0.0 0.00 0.00 0.00 89 1016.5
20260507233934 12 126 0.0 0.0 0.00 0.00 0.00 89 1016.5
20260507232433 13 132 0.0 0.0 0.00 0.00 0.00 88 1016.5
20260507230932 13 132 0.0 0.0 0.00 0.00 0.00 87 1016.4
20260507225431 13 132 0.0 0.0 0.00 0.00 0.00 87 1016.6
20260507223930 13 108 0.0 0.0 0.00 0.00 0.00 87 1016.6
20260507222429 13 108 0.0 0.0 0.00 0.00 0.00 87 1016.7
20260507220928 13 90 0.0 0.0 0.00 0.00 0.00 86 1016.7
20260507215427 13 39 0.0 0.0 0.00 0.00 0.00 85 1016.7
20260507213926 13 39 0.0 0.0 0.00 0.00 0.00 85 1016.8
20260507212425 13 102 0.0 0.0 0.00 0.00 0.00 85 1016.7
20260507210923 13 48 0.0 0.0 0.00 0.00 0.00 84 1016.7
20260507205422 13 136 0.0 0.0 0.00 0.00 0.00 83 1016.6
20260507203921 13 120 0.0 0.0 0.00 0.00 0.00 83 1016.5
20260507202420 13 90 0.0 0.0 0.00 0.00 0.00 84 1016.4
20260507200918 14 106 0.0 0.0 0.00 0.00 0.00 83 1016.2
20260507195417 14 48 0.0 0.0 0.00 0.00 0.00 84 1016.2
20260507193916 14 114 0.0 0.0 0.00 0.00 0.00 87 1016.0
20260507192415 15 36 0.0 0.0 0.00 0.00 0.00 87 1015.9
20260507190914 15 118 0.0 0.0 0.00 0.00 0.00 87 1015.6
20260507185412 15 96 0.0 0.0 0.00 0.00 0.00 86 1015.3
20260507183911 15 96 0.0 0.0 0.00 0.00 0.00 86 1015.0
20260507180908 15 102 0.0 0.0 0.00 0.00 0.00 86 1014.5
20260507175407 15 300 0.0 0.0 0.00 0.00 0.00 85 1014.4
20260507173906 15 120 0.0 0.0 0.00 0.00 0.00 83 1014.2
20260507170904 15 120 0.0 0.0 0.00 0.00 0.00 83 1014.0
20260507165402 15 175 0.0 0.0 0.00 0.00 0.00 86 1014.1
20260507163901 15 97 0.0 0.0 0.00 0.00 0.00 89 1014.0
20260507162400 16 117 0.0 3.2 0.00 0.00 0.00 89 1014.0
20260507160900 16 137 0.0 3.2 0.00 0.00 0.00 86 1013.8
20260507155358 17 65 0.0 0.0 0.00 0.00 0.00 81 1013.8
20260507153857 18 144 0.0 1.6 0.00 0.00 0.00 78 1013.6
20260507152356 18 336 0.0 0.0 0.00 0.00 0.00 78 1013.4
20260507150855 18 132 0.0 0.0 0.00 0.00 0.00 79 1013.5
20260507145354 18 61 0.0 0.0 0.00 0.00 0.00 78 1013.5
20260507143853 19 312 0.0 0.0 0.00 0.00 0.00 76 1013.4
20260507142352 19 312 0.0 0.0 0.00 0.00 0.00 76 1013.2
20260507140850 20 102 0.0 0.0 0.00 0.00 0.00 67 1013.2
20260507135349 20 102 0.0 0.0 0.00 0.00 0.00 67 1013.1
20260507133848 21 114 0.0 0.0 0.00 0.00 0.00 62 1013.1
20260507132347 21 122 0.0 1.6 0.00 0.00 0.00 56 1012.9
20260507130846 22 126 0.0 0.0 0.00 0.00 0.00 47 1012.7
20260507125345 24 75 0.0 1.6 0.00 0.00 0.00 43 1012.5
20260507123844 25 78 0.0 0.0 0.00 0.00 0.00 39 1012.5
20260507122344 26 44 0.0 0.0 0.00 0.00 0.00 38 1012.6
20260507120842 26 90 0.0 0.0 0.00 0.00 0.00 38 1012.7
20260507115341 24 66 0.0 0.0 0.00 0.00 0.00 42 1012.6
20260507113840 24 66 0.0 0.0 0.00 0.00 0.00 42 1012.7
20260507112339 24 109 0.0 1.6 0.00 0.00 0.00 43 1012.6
20260507110838 25 84 0.0 1.6 0.00 0.00 0.00 41 1012.6
20260507103835 25 172 0.0 3.2 0.00 0.00 0.00 37 1012.4
20260507102335 25 168 1.6 3.2 0.00 0.00 0.00 38 1012.3
20260507100834 25 42 1.6 6.4 0.00 0.00 0.00 38 1012.2
20260507095333 25 82 0.0 3.2 0.00 0.00 0.00 38 1012.2
20260507093832 24 70 1.6 3.2 0.00 0.00 0.00 40 1012.1
20260507092331 24 270 0.0 3.2 0.00 0.00 0.00 40 1012.0
20260507090829 23 133 0.0 3.2 0.00 0.00 0.00 41 1011.8
20260507085329 22 71 1.6 6.4 0.00 0.00 0.00 43 1011.8
20260507083828 23 103 1.6 6.4 0.00 0.00 0.00 43 1011.6
20260507082326 22 72 0.0 3.2 0.00 0.00 0.00 44 1011.4
20260507080825 22 79 1.6 4.8 0.00 0.00 0.00 45 1011.4
20260507075325 21 144 1.6 4.8 0.00 0.00 0.00 47 1011.3
20260507073823 21 0 1.6 9.7 0.00 0.00 0.00 49 1011.4
20260507072322 20 54 1.6 3.2 0.00 0.00 0.00 51 1011.4
20260507070821 19 24 0.0 0.0 0.00 0.00 0.00 60 1011.2
20260507065320 19 168 0.0 0.0 0.00 0.00 0.00 61 1011.2
20260507063818 19 49 0.0 3.2 0.00 0.00 0.00 60 1011.0
20260507062316 19 37 0.0 1.6 0.00 0.00 0.00 61 1010.8
20260507060815 18 310 1.6 4.8 0.00 0.00 0.00 62 1010.8
20260507055314 18 226 0.0 0.0 0.00 0.00 0.00 62 1010.5
20260507053813 18 35 0.0 1.6 0.00 0.00 0.00 63 1010.4
20260507052312 18 264 0.0 3.2 0.00 0.00 0.00 63 1010.5
20260507050810 18 186 0.0 0.0 0.00 0.00 0.00 63 1010.3
20260507045310 17 336 0.0 1.6 0.00 0.00 0.00 66 1010.4
20260507043809 16 61 0.0 0.0 0.00 0.00 0.00 70 1010.5
20260507042307 16 61 0.0 0.0 0.00 0.00 0.00 70 1010.3
20260507040806 16 298 0.0 0.0 0.00 0.00 0.00 70 1010.3
20260507035306 16 120 0.0 0.0 0.00 0.00 0.00 70 1010.2